COSMOS 2485 (747)

Last updated on Mon Jun 22 2026 00:03:26 GMT+0000 (Coordinated Universal Time)

1 39155U 13019A 26172.13334175 -.00000048 00000+0 00000+0 0 9993 2 39155 65.4217 73.4720 0023003 233.7016 126.1208 2.13103118102365
UTC large
Height (km)
Speed (km/s)
/
Latitude / Longitude
Inclination (degrees)
Orbital Period (minutes)
Azimuth
Elevation
Range (km)
Doppler Factor

Next 0 passes for location: London (51.5072 / 0.1276)

No passes found over London.
COSMOS 2485 (747)